THOR ABLESTAR DEB, 150

Orbit data source: Space-Track

THOR ABLESTAR DEB, 150 is space debris in LEO originally from a launch on Thu, 29 Jun 1961 UTC launched from the Air Force Eastern Test Range (AFETR). Debris objects in space refer to the collection of defunct objects orbiting the Earth. Examples of debris include non-operational satellites, rocket bodies, and fragments generated from explosions, collisions, or faulty payload assembly.

Loading next visibility...
Identifier
150, 1961-015AL
Orbit
LEO
Country
Flag of USUS
Related business
Manufacturer
Unknown
Mission
Spacecraft
Bus & Motor
Unknown
Mass
Unknown
Launch date (UTC)
1961-06-29 (64 years ago)
Launch vehicle
Unknown
Launch site
Air Force Eastern Test Range (AFETR)
Object type
Payload
Rocket body
Debris
Shape & HBR
Unknown shape, 0.1 m
Radar Cross Section
Medium (>0.1 m² and <1 m²)

Expand to show TLE details & history
Last TLE update: 1 day ago

TLE from 1 day ago
0 THOR ABLESTAR DEB
1   150U 61015AL  25306.48221613  .00000272  00000-0  31462-3 0  9992
2   150  66.2459 102.2953 0055298  21.3388 338.9971 13.83610089 77133
Epoch: 2025-11-02T11:34Z
TLE epoch observation values (Epoch: 2025-11-02T11:34:23.473Z)
Latitude
0.00003°
Longitude
-113.2998°
Altitude
915.325 km
Speed
7.414 km/s
True Right ascension
06h 49m 10s
True Declination
0° 00' 00"
Sunlit
Object was in daylight at epoch
Visualization orbit readout
Latitude
Unknown
Longitude
Unknown
Altitude
Unknown
Speed
Unknown
Apparent Right ascension
Unknown
Apparent Declination
Unknown
Sunlit
N/A
Visualization observer readout
Local Sidereal Time
10:54:00
Azimuth
Unknown
Elevation
Unknown
Doppler factor
Unknown
Orbital elements
Apogee altitude
990.093 km
Perigee altitude
909.052 km
Semi-major axis
7,327.71 km
Eccentricity
0.00553
Inclination
66.2459°
RAAN
102.2953°
Arg. of periapsis
21.3388°
True anomaly
338.76851°
Mean anomaly
338.9971°
Eccentric anomaly
338.88295°
Mean motion
3.46012 °/min
Orbital period
104.04 mins
BSTAR
0.00031462

Documentation

Showing up to 5 results
|